Location: Hilton Head Island
(32.2163°N, 80.7526°W)
Time: 15:21:33
(UTC-04:00)

Tiros 1 despin weight - Pass Details

Date: 17 February 2026
Orbit: 556 x 593 km, 48.2° (Epoch: 10 March)

Event Time Altitude Azimuth Distance (km) Brightness Sun altitude
Rises 16:50:00 0° 286° (WNW) 2,734 ? 15.3°
Reaches altitude 10° 16:53:25 10° 315° (NW) 1,836 ? 14.7°
Maximum altitude 16:55:21 13° 343° (NNW) 1,660 ? 14.3°
Drops below altitude 10° 16:57:17 10° 10° (N) 1,835 ? 13.9°
Sets 17:00:43 0° 40° (NE) 2,732 ? 13.3°
